User: anonymous   Login
Location: Barrio de Buenos Aires
(28.4500°N, 16.2667°W)
Time: 20:23:57
(UTC+00:00)
Language:

Cosmos 2263 Rocket - Orbit

View from above orbital plane
View from above orbital plane
View from above satellite
View from above satellite

Ground track
Ground track

The orbit data is extracted from the following two-line orbital elements,

1 22803U 93059B   20090.75193101 -.00000146 +00000-0 -48800-4 0  9996
2 22803 070.9873 265.1202 0019525 274.8971 084.9923 14.16817273372152
Epoch (UTC): 30 March 2020 18:02:46
Eccentricity: 0.0019525
inclination: 70.9873°
perigee height: 822 km
apogee height: 850 km
right ascension of ascending node: 265.1202°
argument of perigee: 274.8971°
revolutions per day: 14.16817273
mean anomaly at epoch: 84.9923°
orbit number at epoch: 37215

The dashed part of the orbit path shows where the satellite is in the earth's shadow,  

DLR